Location: Biltmore Gardens
(41.6070°N, 83.4666°W)
Time: 15:21:45
(UTC+00:00)

Abrixas rocket - Pass Details

Date: 14 July 2020
Orbit: 338 x 346 km, 48.4° (Epoch: 12 August)

Event Time Altitude Azimuth Distance (km) Brightness Sun altitude
Rises 09:13:13 0° 297° (WNW) 2,121 5.6 -9.8°
Reaches altitude 10° 09:15:14 10° 294° (WNW) 1,279 4.4 -9.6°
Maximum altitude 09:18:04 63° 212° (SSW) 380 1.7 -9.1°
Drops below altitude 10° 09:20:53 10° 130° (SE) 1,273 4.8 -8.7°
Sets 09:22:53 0° 127° (SE) 2,109 6.0 -8.5°
